Location: 5810 Zion Rd, Cleves, OH 45002, USA
(39.1922°N, 84.7113°W)
Time: 03:34:01
(UTC-05:00)

Vanguard 3 - Pass Details

Date: 15 December 2019
Orbit: 508 x 3263 km, 33.3° (Epoch: 19 January)

Event Time Altitude Azimuth Distance (km) Brightness Sun altitude
Rises 12:10:27 0° 275° (W) 4,688 10.9 27.3°
Reaches altitude 10° 12:13:15 10° 269° (W) 4,022 10.7 27.3°
Maximum altitude 12:23:54 44° 202° (SSW) 3,103 11.5 27.5°
Drops below altitude 10° 12:40:18 10° 139° (SE) 6,040 12.4 27.5°
Sets 12:45:44 0° 134° (SE) 7,193 12.5 27.5°
